Ajaccio, France

9:49 PM CEST on August 17, 2017 (GMT +0200)
Campo Dell' Oro

Weather History for LFKJ - January, 2013

Change the Weather History Date:

Monday, January 7, 2013

  Actual Average Record
Temperature  
Mean Temperature 52 °F -  
Max Temperature 61 °F 55 °F 64 °F (1999)
Min Temperature 42 °F 37 °F 27 °F (2017)
Degree Days  
Heating Degree Days 14    
Growing Degree Days 2 (Base 50)    
Moisture  
Dew Point 45 °F    
Average Humidity 81    
Maximum Humidity 93    
Minimum Humidity 55    
Precipitation  
Precipitation 0.00 in 0.10 in - ()
Sea Level Pressure  
Sea Level Pressure 30.15 in    
Wind  
Wind Speed 5 mph ()    
Max Wind Speed 9 mph    
Max Gust Speed -    
Visibility 6.8 miles    
Events      
Averages and records for this station are not official NWS values.
T = Trace of Precipitation, MM = Missing Value Source: Averaged Metar Reports

Daily Weather History Graph

Daily Weather History Graph

Search for Another Location

Airport or City:

Trip Planner

Search our weather history database for the weather conditions in past years. The results will help you decide how hot, cold, wet, or windy it might be!

Date:

Astronomy

Jan. 07, 2013 Rise Set
Actual Time 7:52 AM CET 5:10 PM CET
Civil Twilight 7:21 AM CET 5:41 PM CET
Nautical Twilight 6:46 AM CET 6:16 PM CET
Astronomical Twilight 6:12 AM CET 6:49 PM CET
Moon 2:55 AM CET (1/7) 1:09 PM CET (1/7)
Length of Visible Light 10h 20m
Length of Day
9h 17m
Waning Crescent, 25% of the Moon is Illuminated
Jan 7
Waning Crescent
Jan 11
New
Jan 19
First Quarter
Jan 27
Full
Feb 3
Last Quarter

Hourly Weather History & Observations

Time (CET) Temp. Windchill Dew Point Humidity Pressure Visibility Wind Dir Wind Speed Gust Speed Precip Events Conditions
12:00 AM 50.0 °F - 46.4 °F 87% 30.15 in 6.2 mi ENE 3.5 mph - N/A   Mostly Cloudy
12:30 AM 48.2 °F - 44.6 °F 87% 30.15 in 6.2 mi ENE 5.8 mph - N/A   Overcast
1:00 AM 47 °F - 44 °F 86% 30.15 in 8 mi ENE 5.8 mph - -   Clear
1:00 AM 46.4 °F 43.5 °F 44.6 °F 93% 30.12 in 6.2 mi ENE 5.8 mph - N/A   Mostly Cloudy
1:30 AM 46.4 °F 42.9 °F 44.6 °F 93% 30.12 in 6.2 mi ENE 6.9 mph - N/A   Mostly Cloudy
2:00 AM 46.4 °F 42.9 °F 44.6 °F 93% 30.12 in 6.2 mi ENE 6.9 mph - N/A   Overcast
2:30 AM 46.4 °F 42.4 °F 44.6 °F 93% 30.09 in 6.2 mi ENE 8.1 mph - N/A   Overcast
3:00 AM 48.2 °F - 44.6 °F 87% 30.12 in 6.2 mi ENE 6.9 mph - N/A   Overcast
3:30 AM 48.2 °F - 44.6 °F 87% 30.12 in 6.2 mi NE 8.1 mph - N/A   Overcast
4:00 AM 48.2 °F - 44.6 °F 87% 30.09 in 6.2 mi NE 6.9 mph - N/A   Overcast
4:30 AM 48.2 °F - 44.6 °F 87% 30.09 in 6.2 mi ENE 5.8 mph - N/A   Overcast
5:00 AM 48.2 °F - 44.6 °F 87% 30.09 in 6.2 mi East 5.8 mph - N/A   Overcast
5:30 AM 50.0 °F - 46.4 °F 87% 30.09 in 6.2 mi ENE 4.6 mph - N/A   Overcast
6:00 AM 50.0 °F - 44.6 °F 82% 30.09 in 6.2 mi NNE 5.8 mph - N/A   Mostly Cloudy
6:30 AM 48.2 °F - 42.8 °F 82% 30.09 in 6.2 mi ENE 6.9 mph - N/A   Mostly Cloudy
7:00 AM 48 °F - 44 °F 81% 30.11 in 19 mi NE 6.9 mph - -   Scattered Clouds
7:00 AM 48.2 °F - 44.6 °F 87% 30.09 in 6.2 mi NE 5.8 mph - N/A   Mostly Cloudy
7:30 AM 46.4 °F 43.5 °F 42.8 °F 87% 30.09 in 6.2 mi NE 5.8 mph - N/A   Mostly Cloudy
8:00 AM 44.6 °F 40.2 °F 41.0 °F 87% 30.09 in 6.2 mi ENE 8.1 mph - N/A   Mostly Cloudy
8:30 AM 46.4 °F 42.9 °F 42.8 °F 87% 30.12 in 6.2 mi NE 6.9 mph - N/A   Mostly Cloudy
9:00 AM 46.4 °F 43.5 °F 42.8 °F 87% 30.12 in 6.2 mi NE 5.8 mph - N/A   Scattered Clouds
9:30 AM 46.4 °F 42.9 °F 42.8 °F 87% 30.12 in 6.2 mi ENE 6.9 mph - N/A   Partly Cloudy
10:00 AM 50.0 °F - 44.6 °F 82% 30.15 in 6.2 mi ENE 6.9 mph - N/A   Partly Cloudy
10:30 AM 53.6 °F - 44.6 °F 72% 30.15 in 6.2 mi ENE 3.5 mph - N/A   Partly Cloudy
11:00 AM 57.2 °F - 46.4 °F 67% 30.15 in 6.2 mi East 4.6 mph - N/A   Partly Cloudy
11:30 AM 59.0 °F - 46.4 °F 63% 30.15 in 6.2 mi Variable 2.3 mph - N/A   Partly Cloudy
12:00 PM 60.8 °F - 46.4 °F 59% 30.15 in 6.2 mi Variable 2.3 mph - N/A   Partly Cloudy
12:30 PM 59.0 °F - 46.4 °F 63% 30.15 in 6.2 mi West 3.5 mph - N/A   Partly Cloudy
1:00 PM 59 °F - 47 °F 55% 30.16 in 25 mi WSW 3.5 mph - -   Scattered Clouds
1:00 PM 59.0 °F - 46.4 °F 63% 30.15 in 6.2 mi WSW 3.5 mph - N/A   Partly Cloudy
1:30 PM 60.8 °F - 48.2 °F 63% 30.15 in 6.2 mi WSW 3.5 mph - N/A   Partly Cloudy
2:00 PM 60.8 °F - 50.0 °F 68% 30.12 in 6.2 mi WSW 5.8 mph - N/A   Partly Cloudy
2:30 PM 60.8 °F - 50.0 °F 68% 30.15 in 6.2 mi WSW 6.9 mph - N/A   Partly Cloudy
3:00 PM 59.0 °F - 50.0 °F 72% 30.15 in 6.2 mi WSW 6.9 mph - N/A   Partly Cloudy
3:30 PM 59.0 °F - 50.0 °F 72% 30.15 in - SW 4.6 mph - N/A   Clear
4:00 PM 59.0 °F - 50.0 °F 72% 30.15 in - SW 3.5 mph - N/A   Clear
4:30 PM 59.0 °F - 50.0 °F 72% 30.15 in - SSW 3.5 mph - N/A   Clear
5:00 PM 57.2 °F - 50.0 °F 77% 30.15 in - SSE 2.3 mph - N/A   Clear
5:30 PM 53.6 °F - 48.2 °F 82% 30.15 in - ENE 1.2 mph - N/A   Clear
6:00 PM 51.8 °F - 48.2 °F 88% 30.15 in - Calm Calm - N/A   Clear
6:30 PM 50.0 °F - 46.4 °F 87% 30.18 in - East 2.3 mph - N/A   Clear
7:00 PM 49 °F - 45 °F 80% 30.21 in 12 mi NE 6.9 mph - -   Clear
7:00 PM 50.0 °F - 44.6 °F 82% 30.18 in - NE 6.9 mph - N/A   Clear
7:30 PM 48.2 °F - 44.6 °F 87% 30.18 in - ENE 5.8 mph - N/A   Clear
8:00 PM 46.4 °F 42.9 °F 44.6 °F 93% 30.18 in - NE 6.9 mph - N/A   Clear
8:30 PM 46.4 °F 43.5 °F 44.6 °F 93% 30.21 in - NE 5.8 mph - N/A   Clear
9:00 PM 44.6 °F 40.7 °F 42.8 °F 93% 30.21 in - NE 6.9 mph - N/A   Clear
9:30 PM 44.6 °F 40.7 °F 41.0 °F 87% 30.21 in - NE 6.9 mph - N/A   Clear
10:00 PM 42.8 °F 37.5 °F 39.2 °F 87% 30.21 in - NE 9.2 mph - N/A   Clear
10:30 PM 44.6 °F 39.7 °F 41.0 °F 87% 30.24 in - NE 9.2 mph - N/A   Clear
11:00 PM 44.6 °F 40.2 °F 41.0 °F 87% 30.24 in - NE 8.1 mph - N/A   Clear
11:30 PM 44.6 °F 39.7 °F 39.2 °F 81% 30.24 in - NE 9.2 mph - N/A   Clear